[[{"header":{"parameterUnit":"m.s-1","parameterCategory":1,"la1":30.2991,"la2":30.254,"lo1":-89.0895,"lo2":-89.0444,"dy":0.0017,"dx":0.0017,"nx":28,"ny":28,"refTime":"2023-10-03T03:00:00:Z","depth":0,"parameterNumber":2,"parameterNumberName":"U-component_of_WINDS"},"data":[0,0,0,0,0,0,0,0,0,0,0,0,0,0,0,0,0,0,0,0,0,0,0,0,0,0,0,0,0,0,0,0,0,0,0,0,0,0,0,0,0,0,0,0,0,0,0,0,0,0,0,0,0,0,0,0,0,0,-3.8889,-3.8889,0,-3.8854,-3.8854,-3.8854,-3.8676,-3.8671,-3.8667,-3.8663,-3.863,-3.8633,-3.8636,0,0,0,0,0,0,0,0,0,0,0,0,0,-3.8803,-3.8806,-3.8889,-3.8889,-3.8888,-3.8855,-3.8854,-3.8854,-3.8676,-3.8671,-3.8666,-3.8661,-3.8629,-3.8632,-3.8636,0,0,0,0,0,0,0,0,0,0,0,0,0,-3.8812,-3.8807,-3.8889,-3.8796,-3.8787,-3.8855,-3.8854,-3.8853,-3.8678,-3.8671,-3.8665,-3.8659,-3.8628,-3.8632,-3.8637,-3.8792,0,0,-3.8651,-3.8653,0,0,0,0,0,0,0,0,-3.8812,-3.8815,-3.881,-3.8802,-3.8793,-3.8763,-3.8811,-3.8833,-3.8679,-3.8719,-3.8663,-3.8656,-3.8679,-3.8679,-3.8687,-3.879,-3.8789,-3.8651,-3.8654,-3.8656,-3.8657,0,0,0,0,0,0,0,-3.8811,-3.8816,-3.8875,-3.881,-3.8799,-3.8756,-3.875,-3.8815,-3.8735,-3.8715,-3.8702,-3.87,-3.8673,-3.8683,-3.8685,-3.8788,-3.8651,-3.8655,-3.8658,-3.866,-3.9017,-3.9023,0,0,0,0,0,0,-3.8824,-3.8816,-3.8876,-3.8874,-3.8787,-3.8763,-3.8756,-3.8779,-3.8734,-3.8721,-3.8706,-3.8692,-3.8678,-3.868,-3.8683,-3.886,-3.8656,-3.866,-3.8663,-3.901,-3.9018,-3.9026,0,0,0,0,0,0,-3.8822,-3.8831,-3.8878,-3.8842,-3.8844,-3.8771,-3.8798,-3.8782,-3.879,-3.8727,-3.8712,-3.873,-3.8673,-3.8676,-3.8766,-3.8857,-3.8662,-3.8666,-3.9002,-3.9013,-3.9022,-3.9218,0,0,0,0,0,0,-3.8821,-3.8831,-3.8889,-3.8844,-3.8847,-3.8961,-3.8803,-3.8785,-3.8799,-3.8781,-3.8746,-3.8734,-3.8668,-3.876,-3.877,-3.8859,-3.867,-3.8994,-3.9007,-3.9019,-3.9203,-3.9234,-3.926,0,0,0,0,0,-3.8818,-3.8946,-3.8893,-3.8901,-3.8918,-3.8967,-3.8968,-3.889,-3.8807,-3.8864,-3.8824,-3.8735,-3.8846,-3.8771,-3.8781,-3.8873,-3.8988,-3.9003,-3.9018,-3.919,-3.9228,-3.9259,0,0,0,0,0,0,-3.9004,-3.8939,-3.8879,-3.8996,-3.8988,-3.8937,-3.9007,-3.8932,-3.8948,-3.8931,-3.8833,-3.8827,-3.8931,-3.8911,-3.8828,-3.9021,-3.8902,-3.892,-3.9029,-3.9064,-3.9092,-3.9094,-3.8674,0,0,0,0,0,-3.9059,-3.9103,-3.9044,-3.9153,-3.9152,-3.9081,-3.91,-3.904,-3.9028,-3.9024,-3.899,-3.8983,-3.9015,-3.9039,-3.9066,-3.92,-3.919,-3.9269,-3.9297,-3.9321,-3.9337,-3.9406,-3.944,-3.9076,-3.9076,-3.9075,0,0,-3.9171,-3.9141,-3.9176,-3.919,-3.9177,-3.9225,-3.9079,-3.9137,-3.9172,-3.9033,-3.9114,-3.909,-3.9075,-3.9188,-3.9236,-3.9174,-3.9435,-3.934,-3.9359,-3.9362,-3.9425,-3.9459,-3.949,-3.9086,-3.9084,-3.9082,0,0,-3.9402,-3.9384,-3.9472,-3.9462,-3.9444,-3.9396,-3.9418,-3.9378,-3.9356,-3.9436,-3.9333,-3.9374,-3.9433,-3.9426,-3.9431,-3.9661,-3.9579,-3.9673,-3.982,-3.9888,-3.9917,-3.9941,-4.0022,-4.0052,-3.9689,-3.969,-3.969,0,-3.9544,-3.9613,-3.9527,-3.9592,-3.9601,-3.9477,-3.9566,-3.9561,-3.9553,-3.9563,-3.9494,-3.9566,-3.9547,-3.9656,-3.9712,-3.9721,-3.9742,-3.9675,-3.9919,-3.9943,-3.9965,-4.0041,-4.0072,-3.9701,-3.97,-3.9698,-3.9697,0,-3.9789,-3.9838,-3.9912,-3.9907,-3.9924,-4.0001,-3.9928,-3.9956,-3.9896,-3.9855,-3.9939,-3.9913,-3.9932,-3.9954,-3.9896,-4.0055,-4.0017,-3.9937,-3.9814,-4.0013,-4.0082,-4.0111,-3.9717,-3.9713,-3.971,-3.9707,0,0,-4.0132,-4.008,-4.0108,-4.0104,-4.0076,-4.0112,-4.0184,-4.0202,-4.0228,-4.0228,-4.0285,-4.0339,-4.0263,-4.0268,-4.0209,-4.027,-4.0452,-4.018,-4.0178,-4.023,-4.0624,-4.0684,-4.0719,-4.0399,-4.0404,-4.0408,-4.0625,0,-4.0351,-4.0468,-4.0394,-4.0524,-4.0568,-4.0452,-4.0514,-4.0504,-4.0469,-4.0502,-4.0463,-4.0502,-4.04,-4.0402,-4.0457,-4.0418,-4.0529,-4.0402,-4.045,-4.0453,-4.0455,-4.0755,-4.0819,-4.1024,-4.0652,-4.0656,-4.0659,0,-4.0621,-4.0632,-4.0766,-4.0728,-4.0744,-4.0801,-4.0812,-4.0845,-4.0832,-4.0802,-4.0809,-4.0734,-4.0802,-4.0685,-4.0777,-4.0692,-4.0708,-4.0692,-4.0698,-4.0698,-4.0567,-4.0762,-4.1088,-4.1119,-4.0702,-4.0698,-4.0695,0,-4.0856,-4.0905,-4.099,-4.0991,-4.095,-4.0993,-4.0978,-4.0958,-4.0974,-4.0984,-4.0993,-4.1012,-4.1022,-4.1039,-4.0971,-4.0892,-4.1073,-4.0949,-4.1049,-4.1051,-4.109,-4.1088,-4.1422,-4.1105,-4.1104,-4.1104,-4.1103,0,-4.1107,-4.1193,-4.1095,-4.1148,-4.1241,-4.1156,-4.1251,-4.1224,-4.1208,-4.1253,-4.1155,-4.1201,-4.111,-4.1147,-4.1095,-4.1179,-4.1185,-4.1162,-4.1147,-4.117,-4.1172,-4.1177,-4.116,-4.1112,-4.111,-4.1109,-4.1107,0,-4.1384,-4.1322,-4.1408,-4.1363,-4.1353,-4.1424,-4.1385,-4.1432,-4.1391,-4.145,-4.146,-4.1395,-4.1433,-4.1368,-4.1398,-4.1364,-4.148,-4.1444,-4.1484,-4.1473,-4.1576,-4.1567,-4.1923,-4.1965,-4.1623,-4.1626,-4.1629,0,-4.1547,-4.161,-4.1572,-4.1595,-4.1585,-4.1625,-4.164,-4.1559,-4.158,-4.157,-4.1618,-4.1648,-4.1667,-4.1733,-4.1689,-4.1712,-4.1674,-4.1798,-4.1677,-4.1698,-4.1674,-4.167,-4.1676,-4.1822,-4.1826,-4.183,-4.1832,0,-4.1842,-4.1808,-4.1834,-4.1849,-4.187,-4.1879,-4.188,-4.1905,-4.182,-4.1848,-4.1885,-4.19,-4.1931,-4.1961,-4.1974,-4.1959,-4.1882,-4.1871,-4.1895,-4.1918,-4.1938,-4.1927,-4.155,-4.1863,-4.186,-4.1857,-4.1856,-4.1855,-4.2065,-4.2116,-4.2096,-4.2128,-4.2121,-4.2125,-4.2167,-4.2131,-4.216,-4.2178,-4.2129,-4.2178,-4.2163,-4.2172,-4.2166,-4.2203,-4.2148,-4.2184,-4.2192,-4.2202,-4.2217,-4.1934,-4.2205,-4.2204,-4.2204,-4.2203,-4.2202,0,-4.2353,-4.2336,-4.2366,-4.237,-4.2396,-4.2322,-4.232,-4.2346,-4.239,-4.2382,-4.2403,-4.2446,-4.2476,-4.2435,-4.2458,-4.2495,-4.2461,-4.2504,-4.2499,-4.2497,-4.2266,-4.2242,-4.2532,-4.2531,-4.2531,-4.2531,-4.2531,-4.2531,-4.2506,-4.2587,-4.2552,-4.2629,-4.261,-4.2656,-4.2662,-4.2665,-4.2658,-4.2711,-4.2734,-4.2707,-4.2687,-4.2707,-4.2731,-4.2719,-4.2731,-4.2786,-4.2762,-4.2546,-4.2513,-4.2483,-4.2459,-4.279,-4.2791,-4.2989,-4.2991,-4.2993]},{"header":{"parameterUnit":"m.s-1","parameterCategory":1,"la1":30.2991,"la2":30.254,"lo1":-89.0895,"lo2":-89.0444,"dy":0.0017,"dx":0.0017,"nx":28,"ny":28,"refTime":"2023-10-03T03:00:00:Z","depth":0,"parameterNumber":3,"parameterNumberName":"V-component_of_WINDS"},"data":[0,0,0,0,0,0,0,0,0,0,0,0,0,0,0,0,0,0,0,0,0,0,0,0,0,0,0,0,0,0,0,0,0,0,0,0,0,0,0,0,0,0,0,0,0,0,0,0,0,0,0,0,0,0,0,0,0,0,2.0133,2.0133,0,2.0149,2.0149,2.0149,2.019,2.0191,2.0192,2.0193,2.0204,2.0203,2.0203,0,0,0,0,0,0,0,0,0,0,0,0,0,2.0132,2.0132,2.0133,2.0133,2.0133,2.0149,2.0149,2.0149,2.019,2.0191,2.0192,2.0193,2.0204,2.0203,2.0202,0,0,0,0,0,0,0,0,0,0,0,0,0,2.0139,2.0132,2.0133,2.0155,2.0158,2.0149,2.0149,2.0149,2.019,2.0191,2.0192,2.0194,2.0204,2.0203,2.0202,2.0171,0,0,2.02,2.02,0,0,0,0,0,0,0,0,2.0138,2.0139,2.0152,2.0154,2.0156,2.0169,2.0153,2.0156,2.0189,2.0177,2.0193,2.0194,2.0191,2.0191,2.0191,2.0172,2.0172,2.02,2.0199,2.0199,2.0199,0,0,0,0,0,0,0,2.0138,2.0138,2.0139,2.0152,2.0155,2.0163,2.0166,2.0154,2.0176,2.0179,2.0182,2.0183,2.0192,2.0192,2.0191,2.0172,2.02,2.0199,2.0199,2.0198,2.0128,2.0127,0,0,0,0,0,0,2.0135,2.0137,2.0138,2.0139,2.0151,2.0162,2.0165,2.0163,2.0176,2.018,2.0182,2.0185,2.0192,2.0192,2.0192,2.0156,2.0199,2.0198,2.0198,2.013,2.0128,2.0127,0,0,0,0,0,0,2.0135,2.0134,2.0138,2.0139,2.014,2.0161,2.0159,2.0163,2.0163,2.0179,2.0183,2.0178,2.0193,2.0193,2.0177,2.0157,2.0198,2.0197,2.0131,2.0129,2.0127,2.0084,0,0,0,0,0,0,2.0134,2.0134,2.0123,2.0139,2.014,2.0123,2.0158,2.0162,2.0162,2.0166,2.0176,2.0179,2.0194,2.0177,2.0176,2.0157,2.0197,2.0133,2.013,2.0128,2.0087,2.0081,2.0075,0,0,0,0,0,2.0134,2.0109,2.0122,2.0122,2.0127,2.0122,2.0122,2.0142,2.016,2.0149,2.016,2.0179,2.016,2.0175,2.0174,2.0154,2.0134,2.0131,2.0128,2.009,2.0082,2.0075,0,0,0,0,0,0,2.0088,2.0111,2.0126,2.0106,2.0112,2.0129,2.0115,2.0133,2.0132,2.0136,2.0159,2.0161,2.0141,2.0146,2.0163,2.0125,2.015,2.0147,2.0122,2.0114,2.0108,2.0107,2.0196,0,0,0,0,0,2.0076,2.0071,2.0091,2.0071,2.0073,2.0094,2.0092,2.0107,2.0113,2.0115,2.0125,2.0129,2.0124,2.012,2.0116,2.0089,2.0091,2.0075,2.0069,2.0064,2.006,2.0046,2.0038,2.0116,2.0116,2.0116,0,0,2.0049,2.0062,2.0057,2.0062,2.0068,2.0061,2.0095,2.0086,2.0081,2.0113,2.0098,2.0106,2.0112,2.009,2.0081,2.0093,2.0039,2.006,2.0056,2.0054,2.0042,2.0034,2.0028,2.0114,2.0115,2.0115,0,0,1.9998,2.0007,1.9992,1.9998,2.0009,2.0023,2.0019,2.0034,2.004,2.0027,2.0051,2.0045,2.0036,2.0039,2.0039,1.9992,2.0009,1.999,1.9957,1.9944,1.9937,1.9932,1.9914,1.9907,1.9986,1.9986,1.9986,0,1.9963,1.9955,1.9981,1.9971,1.9972,2.0004,1.9988,1.9992,2.0,1.9999,2.0015,2.0005,2.0011,1.9991,1.9979,1.9979,1.9974,1.9988,1.9937,1.9932,1.9927,1.991,1.9903,1.9984,1.9984,1.9984,1.9985,0,1.9912,1.9906,1.9892,1.9902,1.9902,1.9888,1.991,1.9907,1.9923,1.9935,1.992,1.993,1.9928,1.9925,1.9939,1.9907,1.9914,1.9933,1.9958,1.9917,1.9901,1.9895,1.998,1.9981,1.9982,1.9982,0,0,1.9829,1.9855,1.9849,1.9854,1.9869,1.9864,1.9852,1.9854,1.985,1.9855,1.9844,1.9838,1.9855,1.9856,1.9871,1.9859,1.982,1.9879,1.988,1.9867,1.9784,1.9769,1.9761,1.9833,1.9832,1.9831,1.9783,0,1.978,1.9763,1.9786,1.9763,1.9758,1.979,1.9779,1.9787,1.9798,1.9794,1.9807,1.9801,1.9825,1.9826,1.9816,1.9827,1.9804,1.9831,1.9822,1.9821,1.9817,1.9753,1.9736,1.969,1.9777,1.9776,1.9775,0,1.9719,1.9724,1.9701,1.9719,1.9717,1.9708,1.9711,1.9708,1.9717,1.9726,1.9728,1.9748,1.9736,1.9763,1.9747,1.9765,1.9763,1.9768,1.9767,1.9765,1.9794,1.9748,1.9676,1.9669,1.9766,1.9767,1.9768,0,1.966,1.966,1.9647,1.965,1.967,1.9663,1.9671,1.9681,1.9681,1.9684,1.9684,1.9685,1.9684,1.9684,1.9703,1.9721,1.9684,1.9712,1.969,1.9689,1.9678,1.9678,1.9604,1.968,1.968,1.968,1.968,0,1.9601,1.9586,1.962,1.9612,1.9595,1.9623,1.9605,1.9616,1.9625,1.9618,1.9646,1.9638,1.9665,1.966,1.9674,1.9658,1.9658,1.9664,1.9668,1.9661,1.966,1.9658,1.9661,1.9678,1.9679,1.9679,1.9679,0,1.9531,1.9554,1.9541,1.9563,1.9568,1.9554,1.9572,1.9564,1.9579,1.957,1.9569,1.9591,1.9587,1.9607,1.9605,1.9615,1.9591,1.9601,1.9589,1.9591,1.9567,1.9568,1.9487,1.9477,1.9561,1.956,1.9559,0,1.9491,1.948,1.9501,1.95,1.9507,1.9504,1.9505,1.9531,1.9531,1.9541,1.9532,1.9531,1.9531,1.9523,1.9537,1.9537,1.9546,1.9517,1.9545,1.9539,1.9543,1.9543,1.9542,1.9511,1.951,1.9509,1.9508,0,1.9417,1.943,1.9431,1.9436,1.9437,1.9442,1.9448,1.9445,1.9474,1.9471,1.9469,1.9469,1.9469,1.9467,1.947,1.9476,1.9496,1.95,1.9494,1.9486,1.9478,1.9481,1.9571,1.9501,1.9501,1.9502,1.9502,1.9503,1.936,1.9352,1.9367,1.9367,1.9375,1.9381,1.9375,1.939,1.9389,1.9393,1.9409,1.9403,1.9413,1.9419,1.9424,1.9419,1.9432,1.9424,1.9422,1.9419,1.9415,1.9481,1.942,1.942,1.942,1.942,1.9421,0,1.9287,1.9299,1.9299,1.9309,1.9309,1.9331,1.934,1.9337,1.9333,1.9342,1.9343,1.9339,1.9338,1.9354,1.9354,1.9347,1.9356,1.9346,1.9346,1.9347,1.9403,1.9408,1.9339,1.9339,1.9339,1.9339,1.9339,1.9339,1.9249,1.9237,1.9251,1.9244,1.9255,1.9251,1.9254,1.926,1.9267,1.9263,1.9263,1.9275,1.9286,1.9288,1.9287,1.9292,1.929,1.9276,1.9284,1.9335,1.9343,1.9351,1.9355,1.9276,1.9276,1.9228,1.9227,1.9227]}]]